This demonstration page uses our WeatherBlox Daily Observations layout. Learn more.

Left ArrowRight Arrow

Hourly Observations for November 14, 2020

Temp ( °F °C ) Dew Point ( °F °C ) Humidity (%) Winds ( mph kmh ) Pressure ( in mb ) Visibility ( mi km ) Precip ( " mm )
12:15 am 00:15 Clear 33 0.7 25 -3.7 73 73 S 16 26 29.76 1008 10 16 N/A
12:35 am 00:35 Clear 33 0.6 26 -3.6 74 74 S 16 26 29.75 1007 10 16 N/A
12:55 am 00:55 Clear 33 0.3 26 -3.6 75 75 SSE 14 22 29.74 1007 10 16 N/A
1:15 am 01:15 Clear 32 0.2 26 -3.3 78 78 SSE 15 24 29.73 1007 10 16 N/A
1:35 am 01:35 Clear 32 undefined 26 -3.1 80 80 S 15 24 29.71 1006 10 16 N/A
1:55 am 01:55 Clear 32 undefined 27 -3 80 80 S 14 22 29.70 1006 10 16 N/A
2:15 am 02:15 Clear 32 -0.1 27 -2.8 82 82 SSE 12 19 29.69 1006 10 16 N/A
2:35 am 02:35 Clear 31 -0.3 27 -2.7 84 84 SSE 13 20 29.68 1005 10 16 N/A
2:55 am 02:55 Clear 31 -0.8 27 -2.9 86 86 SSE 10 17 29.67 1005 10 16 N/A
3:15 am 03:15 Clear 31 -0.8 27 -2.7 87 87 SSE 9 15 29.66 1004 10 16 N/A
3:35 am 03:35 Clear 30 -1 27 -2.7 88 88 S 7 11 29.66 1004 10 16 N/A
3:55 am 03:55 Clear 29 -1.5 27 -3 90 90 S 8 13 29.67 1005 10 16 N/A
4:15 am 04:15 Clear 29 -1.5 27 -2.8 91 91 S 7 11 29.66 1004 10 16 N/A
4:35 am 04:35 Clear 29 -1.7 27 -2.8 92 92 S 9 15 29.66 1004 10 16 N/A
4:55 am 04:55 Clear 30 -1.1 28 -2.2 92 92 S 6 9 29.64 1004 10 16 N/A
5:15 am 05:15 Clear 29 -1.5 27 -2.6 92 92 N N/A 29.64 1004 10 16 N/A
5:35 am 05:35 Clear 28 -2 27 -3 93 93 S 5 7 29.64 1004 10 16 N/A
5:55 am 05:55 Clear 28 -2.2 26 -3.2 93 93 S 3 6 29.62 1003 10 16 N/A
6:15 am 06:15 Clear 28 -2.3 26 -3.1 94 94 S 5 7 29.63 1003 10 16 N/A
6:35 am 06:35 Clear 28 -2.5 26 -3.3 94 94 SW 3 6 29.64 1004 10 16 N/A
6:55 am 06:55 Clear 29 -1.9 27 -2.6 95 95 N N/A 29.62 1003 10 16 N/A
7:15 am 07:15 Clear 29 -1.6 28 -2.5 94 94 SSW 5 7 29.62 1003 10 16 N/A
7:35 am 07:35 Sunny 30 -1.3 28 -2.2 94 94 SW 3 6 29.62 1003 10 16 N/A
7:55 am 07:55 Sunny 32 -0.2 30 -1.2 93 93 WSW 3 6 29.61 1003 10 16 N/A
8:15 am 08:15 Sunny 32 undefined 30 -1.1 92 92 WSW 3 6 29.60 1002 10 16 N/A
8:35 am 08:35 Sunny 33 0.3 30 -1 91 91 WSW 6 9 29.60 1002 10 16 N/A
8:55 am 08:55 Sunny 34 0.9 30 -1 87 87 WSW 6 9 29.59 1002 10 16 N/A
9:15 am 09:15 Sunny 34 1.2 30 -1.1 85 85 W 7 11 29.60 1002 10 16 N/A
9:35 am 09:35 Sunny 35 1.7 31 -0.8 84 84 W 6 9 29.58 1002 10 16 N/A
9:55 am 09:55 Sunny 38 3.5 31 -0.4 76 76 W 8 13 29.55 1001 10 16 N/A
10:15 am 10:15 Sunny 42 5.5 32 -0.1 68 68 W 6 9 29.53 1000 10 16 N/A
10:35 am 10:35 Sunny 46 7.7 32 0.2 59 59 WNW 7 11 29.50 999 10 16 N/A
10:55 am 10:55 Partly Cloudy 50 9.8 34 1 55 55 W 9 15 29.49 999 10 16 N/A
11:15 am 11:15 Sunny 54 12.2 34 1 47 47 W 9 15 29.47 998 10 16 N/A
11:35 am 11:35 Sunny 58 14.3 33 0.7 40 40 W 9 15 29.45 997 10 16 N/A
11:55 am 11:55 Partly Cloudy 59 15 31 -0.4 35 35 WNW 12 19 29.44 997 10 16 N/A
12:15 pm 12:15 Sunny 58 14.5 31 -0.4 36 36 W 15 24 29.44 997 10 16 N/A
12:35 pm 12:35 Sunny 57 13.9 31 -0.8 37 37 W 12 19 29.45 997 10 16 N/A
12:55 pm 12:55 Partly Cloudy 59 14.9 30 -1 34 34 W 16 26 29.43 997 10 16 N/A
1:15 pm 13:15 Cloudy 58 14.4 30 -1.3 34 34 W 9 15 29.44 997 10 16 N/A
1:35 pm 13:35 Mostly Cloudy 58 14.2 29 -1.4 34 34 W 15 24 29.45 997 10 16 N/A
1:55 pm 13:55 Cloudy 58 14.5 30 -1.2 34 34 W 16 26 29.45 997 10 16 N/A
2:15 pm 14:15 Mostly Cloudy 59 15.1 30 -1.2 33 33 W 17 28 29.45 997 10 16 N/A
2:35 pm 14:35 Sunny 59 15.2 29 -1.4 32 32 W 25 41 29.45 997 10 16 N/A
2:55 pm 14:55 Sunny 59 15.2 29 -1.5 32 32 WNW 21 33 29.46 998 10 16 N/A
3:15 pm 15:15 Partly Cloudy 59 15 20 -6.7 22 22 WNW 26 43 29.46 998 10 16 N/A
3:35 pm 15:35 Sunny 57 14.1 21 -5.9 25 25 WNW 28 44 29.49 999 10 16 N/A
3:55 pm 15:55 Partly Cloudy 56 13.5 22 -5.7 26 26 W 26 43 29.50 999 10 16 N/A
4:15 pm 16:15 Mostly Cloudy 55 13 22 -5.5 27 27 W 24 39 29.53 1000 10 16 N/A
4:35 pm 16:35 Partly Cloudy 55 12.5 22 -5.4 28 28 W 20 31 29.55 1001 10 16 N/A
4:55 pm 16:55 Sunny 51 10.8 27 -3 38 38 WNW 26 43 29.61 1003 10 16 N/A
5:15 pm 17:15 Partly Cloudy 49 9.6 31 -0.7 49 49 WNW 33 54 29.64 1004 10 16 N/A
5:35 pm 17:35 Clear 45 7.2 31 -0.7 58 58 NW 30 48 29.70 1006 7 11 N/A
5:55 pm 17:55 Clear 44 6.5 29 -1.4 57 57 NW 23 37 29.72 1007 10 16 N/A
6:15 pm 18:15 Clear 43 6 29 -1.4 59 59 NW 26 43 29.76 1008 10 16 N/A
6:35 pm 18:35 Clear 42 5.5 29 -1.6 61 61 NW 25 41 29.77 1008 10 16 N/A
6:55 pm 18:55 Clear 41 5.2 29 -1.6 62 62 NW 25 41 29.80 1009 10 16 N/A
7:15 pm 19:15 Clear 41 4.8 29 -1.8 63 63 WNW 25 41 29.81 1009 10 16 N/A
7:35 pm 19:35 Clear 40 4.5 29 -1.7 64 64 WNW 22 35 29.83 1010 10 16 N/A
7:55 pm 19:55 Clear 39 4.1 29 -1.5 67 67 WNW 21 33 29.85 1011 10 16 N/A
8:15 pm 20:15 Clear 39 3.8 29 -1.5 69 69 WNW 17 28 29.85 1011 10 16 N/A
8:35 pm 20:35 Clear 38 3.5 29 -1.5 70 70 WNW 13 20 29.85 1011 10 16 N/A
8:55 pm 20:55 Clear 38 3.3 29 -1.9 69 69 W 14 22 29.87 1012 10 16 N/A
9:15 pm 21:15 Clear 37 2.5 28 -2.1 72 72 W 14 22 29.88 1012 10 16 N/A
9:35 pm 21:35 Clear 37 2.5 27 -2.6 69 69 W 15 24 29.89 1012 10 16 N/A
9:55 pm 21:55 Clear 37 2.9 26 -3.6 63 63 WNW 15 24 29.90 1012 10 16 N/A
10:15 pm 22:15 Clear 38 3.5 24 -4.3 57 57 WNW 17 28 29.90 1013 10 16 N/A
10:35 pm 22:35 Clear 38 3.5 24 -4.5 56 56 WNW 17 28 29.91 1013 10 16 N/A
10:55 pm 22:55 Clear 38 3.4 24 -4.5 57 57 WNW 16 26 29.92 1013 10 16 N/A
11:15 pm 23:15 Clear 38 3.5 24 -4.5 56 56 WNW 15 24 29.92 1013 10 16 N/A
11:35 pm 23:35 Clear 38 3.4 24 -4.5 57 57 WNW 17 28 29.93 1014 10 16 N/A
11:55 pm 23:55 Clear 39 3.7 24 -4.3 56 56 WNW 18 30 29.95 1014 10 16 N/A

Powered by AerisWeather